Wind_Speed
11 19 19 25 34 35 17 4 8 10 10 6 7 10 8 15 18 18 17 22 28 33 37 36 34 35 35 30 27 23 20 19 20 21 20 22 21 21 20 22 27 26 29
30 26 20 26 33 23 15 4 6 11 8 7 5 2 11 11 18 14 16 24 26 31 32 30 27 27 27 26 24 22 20 18 17 19 20 22 23 22 24 27 29 29 29
26 20 22 24 28 30 18 13 6 11 5 4 10 9 7 9 9 12 15 21 23 26 28 27 24 23 22 20 18 17 17 16 14 14 15 17 22 24 27 27 29 31 32
20 19 23 26 35 25 15 7 2 9 4 3 12 11 9 10 12 10 18 21 24 24 25 23 20 18 18 17 17 16 14 13 13 14 15 15 22 25 27 30 32 31 31
17 21 29 27 22 19 6 4 9 11 8 7 13 13 15 9 13 18 16 18 18 17 15 17 16 16 17 17 16 16 13 11 12 13 13 18 25 27 31 28 30 28 27
18 19 22 23 19 11 8 10 18 11 9 3 9 14 15 13 18 18 19 16 15 14 12 13 14 13 14 13 13 12 11 10 13 18 21 25 30 28 30 28 27 26 24
18 19 13 16 20 8 6 9 20 18 17 12 13 16 15 17 13 15 18 16 13 13 10 13 14 12 13 13 13 13 15 16 22 27 30 32 32 30 28 27 24 24 22
20 19 13 14 11 8 4 9 19 26 22 22 16 22 12 17 18 23 16 15 12 11 7 13 15 18 17 16 18 22 27 30 31 32 32 31 29 26 24 24 21 20 19
23 17 16 13 5 10 6 10 15 25 26 23 16 18 13 16 21 18 10 17 14 12 9 15 20 19 20 22 25 28 30 31 31 30 28 26 25 22 20 19 19 19 21
19 16 15 13 8 11 15 15 18 27 33 27 23 19 22 21 12 17 15 19 20 6 9 20 24 23 24 23 23 23 24 25 25 25 24 20 19 18 20 21 20 17 15
20 17 13 14 9 10 13 14 22 37 38 20 26 17 18 14 21 11 20 20 10 12 17 6 11 18 21 17 18 18 19 20 20 21 20 20 20 19 17 16 14 13 11
19 14 15 12 8 6 6 16 29 42 35 35 29 25 18 14 14 16 16 18 19 15 14 6 13 24 20 17 14 15 16 21 20 19 18 16 14 12 11 11 10 10 8
21 12 15 15 12 10 9 15 28 33 37 33 23 30 21 8 17 21 12 16 12 17 21 21 20 15 14 19 15 12 16 17 15 14 13 11 9 8 7 6 6 4 2
21 15 17 15 14 11 13 17 30 43 37 23 24 29 14 20 16 17 19 20 19 21 21 21 22 17 19 17 17 10 11 11 12 11 9 7 6 6 5 4 4 3 5
25 18 17 19 18 15 13 17 23 28 26 25 32 33 26 25 25 21 19 11 23 23 25 21 21 19 18 14 13 11 11 10 10 8 6 6 5 4 5 5 7 9 11
25 21 14 17 20 19 17 18 20 26 28 39 37 32 32 25 26 32 25 26 28 28 26 22 23 20 16 9 11 10 11 10 10 9 9 10 10 9 10 10 10 13 17
29 26 21 17 17 21 21 22 25 28 26 35 30 34 34 29 32 30 32 26 26 24 22 22 21 17 14 13 13 10 10 11 12 13 13 13 14 15 15 15 17 19 21
31 26 24 26 18 27 27 25 27 26 29 30 33 33 35 34 37 32 31 29 21 23 24 21 21 19 15 13 14 13 13 16 16 15 15 17 18 20 22 25 26 27 28
33 30 27 25 21 21 29 30 31 31 31 33 34 35 34 33 36 33 35 35 24 29 28 22 23 21 19 14 15 17 17 20 21 21 24 26 26 26 28 29 29 32 35
33 35 33 31 30 27 27 35 33 34 36 35 35 37 39 37 37 37 37 34 29 28 28 26 24 24 23 23 22 22 23 30 32 34 30 29 30 31 33 35 37 39 40
38 39 39 39 37 34 33 30 39 40 40 40 38 41 43 40 39 39 39 38 35 33 33 32 30 30 28 27 25 25 27 32 33 31 33 33 37 40 42 42 43 45 46
36 44 46 46 44 43 37 37 36 44 44 44 43 45 47 42 41 41 42 41 40 38 37 38 38 38 34 31 34 34 34 36 36 36 37 35 38 42 43 43 44 47 50
23 22 36 44 46 49 43 44 41 41 49 51 49 50 51 49 44 47 47 48 44 43 44 42 42 42 43 40 39 40 42 42 42 43 44 46 46 47 49 47 49 52 55
23 26 24 25 29 41 49 50 48 48 47 53 56 55 55 56 54 50 50 53 52 51 52 51 50 50 48 47 47 47 47 47 48 49 50 52 54 55 54 57 56 56 55
32 28 30 30 26 26 34 43 49 51 51 51 54 59 59 60 60 61 60 58 56 57 55 56 58 56 55 54 50 47 49 50 51 54 57 55 57 57 57 57 58 56 55
41 35 34 34 34 35 33 34 42 48 51 52 51 49 58 64 62 60 64 63 64 61 63 62 61 62 61 59 56 54 53 51 53 56 57 55 56 57 57 59 60 60 57
Wind_Direction
293 323 325 326 337 339 352 39 18 347 360 21 63 52 4 12 2 35 68 80 97 99 104 106 108 110 108 107 105 101 100 98 96 94 95 96 98 100 95 86 86 95 92
282 292 314 317 328 339 330 142 199 360 351 310 178 263 28 29 10 28 61 92 94 98 107 112 107 108 102 101 98 97 97 94 91 94 97 96 92 95 102 91 92 92 95
283 306 314 318 325 321 321 335 313 33 347 24 126 95 57 48 25 27 89 96 93 102 105 109 109 101 99 100 103 103 103 97 101 101 102 100 94 107 100 101 102 101 103
285 297 306 306 315 315 322 307 353 101 154 123 136 120 94 80 67 65 108 99 95 98 99 101 105 106 108 109 106 106 114 108 113 106 106 100 108 119 109 111 109 107 104
284 290 303 314 308 306 306 60 125 149 162 151 146 119 93 59 98 102 105 103 103 99 101 105 107 113 118 114 114 110 107 107 109 113 115 117 119 121 118 112 109 106 106
279 306 319 304 290 289 261 227 195 213 193 207 144 117 132 134 115 119 121 112 110 104 102 108 114 115 124 123 121 122 119 115 118 127 126 125 125 120 121 116 112 107 103
289 315 300 307 295 285 248 218 192 188 208 201 126 128 113 125 114 134 135 122 111 98 90 98 99 105 117 114 114 120 121 122 123 119 119 120 122 121 118 115 109 106 107
296 298 273 305 276 287 248 211 189 201 200 189 139 121 111 127 137 124 113 118 110 112 83 85 92 99 100 102 108 114 115 115 118 118 118 119 118 119 115 116 113 112 110
278 269 257 271 256 215 218 220 200 194 177 160 127 168 176 147 137 139 139 140 109 136 118 105 104 101 105 115 118 117 117 118 119 120 120 121 119 119 120 118 114 109 111
244 241 239 229 221 207 187 227 198 186 160 157 152 132 141 152 141 148 146 151 151 147 133 129 112 111 115 120 122 121 119 118 120 123 125 126 123 120 117 114 115 117 119
234 202 217 208 229 200 188 184 178 172 159 159 177 162 129 145 140 153 165 168 196 160 147 116 168 129 125 126 132 127 125 118 119 122 124 126 127 126 124 125 126 125 119
203 194 187 198 200 167 144 152 167 169 171 172 164 163 132 128 152 161 162 169 158 154 175 131 167 143 133 132 142 136 132 124 125 127 131 134 133 130 127 124 124 126 115
198 196 181 182 173 152 148 155 164 164 159 161 171 180 174 183 172 172 178 165 178 169 152 138 134 146 140 142 140 140 138 136 140 142 138 142 142 144 147 145 152 159 149
199 196 181 188 178 154 166 157 172 172 168 189 196 169 179 176 160 170 158 155 149 145 126 140 157 142 141 148 141 163 157 153 160 158 156 163 167 168 164 175 193 238 285
196 198 187 191 195 171 168 174 174 193 195 180 169 178 166 175 167 163 179 174 157 155 162 150 157 158 159 157 167 176 184 186 191 198 212 221 229 229 238 249 268 281 286
196 203 185 200 203 203 185 182 182 183 184 180 181 176 170 162 177 186 200 173 163 169 172 169 166 170 171 188 187 217 211 220 220 229 232 236 245 249 258 264 277 287 292
206 200 193 196 207 215 203 196 187 181 184 184 182 179 174 167 160 162 183 179 174 178 180 183 188 190 204 211 213 228 244 253 250 259 266 264 267 269 269 278 293 296 292
208 212 212 211 222 218 212 205 205 202 191 188 186 184 179 177 172 178 180 180 178 202 198 197 207 215 222 221 228 250 261 262 254 260 266 268 273 279 282 281 281 285 289
209 218 223 229 231 223 220 214 209 210 211 198 196 193 191 191 188 190 190 195 208 197 205 205 221 223 223 230 245 261 269 268 267 270 275 274 276 279 286 283 285 288 290
209 215 221 223 226 227 229 223 218 216 215 213 210 201 200 204 205 203 202 205 214 214 221 223 220 224 241 256 257 258 276 279 273 278 276 276 279 280 280 280 281 283 287
223 226 227 228 229 229 229 228 225 222 218 218 221 215 210 212 215 215 215 216 222 229 227 226 235 240 244 253 261 257 254 266 275 276 276 279 283 285 283 282 281 282 283
236 236 237 238 239 237 233 231 233 229 227 224 224 221 222 222 224 229 233 234 234 236 236 241 249 250 252 255 265 269 266 270 274 283 281 280 283 285 285 284 284 284 284
236 244 237 235 237 237 237 235 232 232 231 230 229 228 230 233 236 236 239 238 242 246 247 253 252 249 256 264 266 271 271 272 278 282 284 285 289 291 290 288 286 287 286
239 242 239 233 238 239 238 236 237 238 233 233 233 233 234 236 241 245 245 242 247 250 250 251 254 253 256 262 269 270 271 273 276 279 281 284 289 292 290 290 289 288 289
243 243 242 240 242 235 237 240 239 239 241 237 234 235 238 240 241 244 247 247 251 253 255 254 255 259 260 261 264 269 273 274 274 279 283 284 286 288 287 287 288 287 289
244 245 247 244 242 245 246 242 241 239 240 241 240 238 238 242 246 248 248 250 251 253 254 255 258 261 263 262 267 267 271 274 276 280 283 281 285 285 284 285 287 287 290
Height
10980 10981 10986 10987 10984 10980 10977 10975 10973 10973 10972 10969 10969 10966 10961 10961 10961 10959 10958 10954 10953 10949 10947 10951 10956 10958 10959 10961 10966 10970 10973 10976 10977 10978 10976 10974 10974 10975 10976 10974 10974 10974 10974
10978 10982 10985 10987 10985 10980 10976 10976 10976 10977 10976 10970 10971 10970 10970 10967 10964 10966 10963 10960 10958 10954 10955 10960 10964 10965 10966 10967 10972 10976 10979 10982 10982 10982 10980 10980 10979 10980 10980 10980 10979 10980 10980
10976 10979 10983 10986 10983 10981 10977 10975 10976 10979 10979 10976 10973 10974 10974 10973 10973 10972 10969 10967 10965 10964 10965 10967 10971 10972 10975 10976 10978 10981 10984 10987 10988 10987 10985 10985 10985 10985 10986 10986 10985 10985 10986
10975 10977 10980 10982 10981 10978 10978 10977 10979 10978 10977 10975 10976 10974 10975 10978 10976 10976 10975 10975 10975 10975 10974 10974 10975 10976 10979 10982 10984 10987 10989 10991 10991 10990 10989 10989 10990 10989 10990 10991 10991 10991 10992
10974 10976 10979 10978 10975 10975 10978 10978 10978 10977 10976 10977 10976 10973 10977 10978 10977 10978 10980 10981 10982 10982 10981 10979 10979 10980 10982 10984 10987 10990 10992 10993 10993 10992 10993 10993 10994 10993 10994 10996 10998 10998 10998
10972 10974 10974 10972 10969 10971 10974 10976 10975 10976 10978 10977 10979 10976 10978 10982 10982 10980 10982 10983 10984 10985 10985 10983 10984 10985 10987 10988 10990 10991 10993 10993 10994 10995 10996 10997 10998 10998 10999 11001 11003 11002 11003
10966 10970 10969 10968 10966 10966 10971 10972 10972 10977 10981 10980 10980 10981 10984 10986 10986 10980 10982 10985 10987 10986 10989 10986 10987 10989 10991 10993 10993 10994 10994 10995 10996 10997 10999 11000 11003 11005 11005 11005 11007 11007 11007
10963 10966 10967 10965 10965 10964 10967 10971 10972 10973 10979 10982 10982 10987 10988 10986 10983 10983 10987 10990 10990 10989 10994 10993 10992 10992 10995 10997 10998 10998 10997 10997 10999 11002 11005 11006 11008 11010 11010 11009 11010 11011 11012
10961 10964 10965 10963 10965 10965 10964 10964 10969 10970 10977 10982 10986 10987 10985 10985 10982 10982 10982 10991 10991 10996 10998 10998 10997 10996 10997 11002 11003 11004 11004 11005 11005 11006 11009 11011 11012 11014 11014 11013 11012 11014 11015
10960 10962 10964 10963 10962 10964 10963 10956 10961 10966 10975 10979 10984 10988 10985 10986 10986 10985 10987 10992 10995 10997 11000 11002 11002 11002 11003 11007 11009 11010 11010 11010 11010 11011 11013 11015 11016 11018 11018 11016 11016 11018 11018
10956 10961 10963 10962 10963 10964 10963 10961 10961 10965 10970 10977 10979 10984 10986 10991 10987 10987 10990 10994 10995 11000 11003 11007 11007 11006 11007 11011 11013 11014 11014 11012 11014 11014 11016 11018 11019 11020 11020 11020 11020 11020 11021
10955 10961 10962 10962 10962 10962 10963 10960 10963 10966 10970 10972 10976 10983 10989 10991 10991 10991 10993 10998 10999 11002 11007 11008 11009 11007 11011 11013 11016 11017 11018 11016 11018 11019 11020 11022 11022 11023 11023 11023 11022 11022 11022
10954 10960 10963 10962 10962 10962 10964 10965 10967 10968 10973 10974 10976 10981 10987 10989 10992 10993 10994 10999 11002 11003 11007 11008 11012 11012 11013 11016 11018 11020 11020 11019 11021 11022 11023 11024 11024 11023 11024 11023 11023 11022 11022
10954 10958 10959 10960 10962 10963 10965 10966 10972 10973 10974 10976 10978 10983 10986 10991 10993 10996 10998 11002 11002 11005 11007 11005 11010 11013 11016 11018 11019 11021 11022 11022 11023 11024 11024 11025 11024 11023 11023 11023 11023 11022 11021
10950 10956 10956 10958 10960 10962 10966 10967 10973 10977 10976 10977 10979 10982 10985 10988 10990 10997 11001 11002 11003 11007 11010 11009 11011 11015 11016 11018 11020 11020 11021 11022 11022 11023 11024 11024 11024 11023 11023 11023 11022 11021 11019
10949 10953 10955 10958 10960 10962 10966 10969 10971 10975 10976 10977 10979 10981 10982 10987 10991 10997 11000 11003 11003 11007 11009 11011 11013 11013 11015 11017 11019 11020 11021 11021 11020 11021 11021 11022 11021 11021 11021 11020 11020 11019 11017
10947 10950 10953 10957 10960 10963 10966 10968 10972 10976 10978 10978 10979 10981 10983 10986 10990 10995 11000 11003 11005 11006 11007 11009 11012 11013 11014 11016 11018 11019 11019 11018 11018 11019 11019 11019 11018 11018 11018 11017 11016 11015 11013
10943 10948 10951 10954 10957 10959 10964 10966 10970 10974 10978 10979 10981 10983 10985 10987 10990 10993 10996 11000 11003 11005 11006 11008 11010 11012 11011 11012 11015 11015 11015 11014 11015 11015 11015 11014 11014 11013 11013 11012 11010 11009 11007
10941 10945 10949 10952 10954 10957 10961 10964 10967 10971 10975 10977 10979 10981 10983 10986 10990 10993 10995 10997 10999 11001 11003 11005 11008 11008 11009 11010 11011 11011 11011 11011 11010 11010 11010 11009 11008 11007 11006 11005 11003 11001 10999
10938 10940 10944 10947 10951 10954 10958 10961 10965 10968 10972 10974 10976 10978 10981 10985 10988 10991 10992 10994 10996 10998 11000 11002 11002 11003 11004 11004 11006 11005 11007 11007 11006 11003 11003 11002 11001 11000 10998 10996 10995 10993 10990
10931 10934 10937 10941 10944 10948 10953 10957 10959 10962 10965 10969 10972 10975 10978 10981 10984 10988 10989 10990 10991 10993 10994 10995 10995 10996 10997 10998 10998 10999 10999 10998 10997 10997 10995 10994 10992 10990 10988 10986 10985 10982 10979
10923 10925 10929 10931 10935 10940 10945 10950 10953 10956 10959 10962 10965 10968 10972 10975 10979 10982 10983 10986 10985 10986 10987 10988 10989 10989 10989 10990 10990 10991 10991 10989 10988 10987 10984 10985 10983 10979 10977 10976 10973 10969 10966
10918 10918 10918 10922 10925 10929 10935 10939 10942 10945 10948 10952 10957 10961 10964 10967 10970 10973 10976 10977 10979 10980 10981 10981 10981 10981 10980 10980 10981 10981 10979 10978 10978 10976 10975 10972 10970 10969 10965 10963 10961 10958 10954
10912 10913 10913 10913 10916 10920 10925 10928 10930 10933 10937 10940 10946 10950 10953 10957 10960 10963 10965 10967 10969 10969 10970 10971 10969 10970 10971 10971 10970 10970 10970 10968 10965 10964 10963 10960 10959 10954 10951 10948 10947 10946 10941
10908 10909 10909 10910 10911 10912 10914 10918 10922 10923 10925 10929 10934 10939 10943 10945 10947 10949 10951 10954 10956 10958 10959 10958 10958 10960 10960 10960 10961 10960 10957 10957 10955 10952 10949 10952 10946 10944 10939 10935 10933 10931 10929
10904 10905 10905 10905 10907 10908 10908 10908 10910 10913 10916 10920 10924 10928 10930 10930 10935 10937 10940 10943 10943 10943 10944 10946 10945 10945 10946 10948 10950 10950 10947 10945 10943 10939 10936 10939 10933 10931 10928 10922 10919 10917 10915